Location: Newark
(13.8117°N, 3.6025°W)
Time: 18:58:21
(UTC+00:00)

Explorer 11/Cluster Stage 4 - Pass Details

Date: 03 September 2019
Orbit: 467 x 1260 km, 28.8° (Epoch: 15 September)

Event Time Altitude Azimuth Distance (km) Brightness Sun altitude
Rises 14:51:04 0° 268° (W) 4,191 10.9 50.9°
Reaches altitude 10° 14:55:23 10° 248° (WSW) 3,226 10.6 49.9°
Maximum altitude 15:00:01 16° 214° (SSW) 2,739 10.0 48.7°
Drops below altitude 10° 15:04:29 10° 179° (S) 3,090 9.8 47.7°
Sets 15:08:31 0° 158° (SSE) 3,930 10.0 46.7°
